Location: Asheville, NC
(35.6000°N, 82.5500°W)
Time: 15:57:51
(UTC-05:00)

STARS - Pass Details

Date: 07 January 2018
Orbit: 625 x 641 km, 98.3° (Epoch: 19 January)

Event Time Altitude Azimuth Distance (km) Brightness Sun altitude
Rises 06:36:25 0° 196° (SSW) 2,896 ? -12.8°
Reaches altitude 10° 06:38:59 10° 211° (SSW) 1,992 ? -12.3°
Maximum altitude 06:42:25 23° 264° (W) 1,338 ? -11.6°
Enters shadow 06:45:03 14° 309° (NW) 1,754 ? -11.1°
